Flag for Germany Weather past 2 weeks in Lübeck, Schleswig-Holstein, Germany

Now
43 °F

Scattered clouds.


Feels Like: 38 °F
Forecast: 35 / 40 °F
Wind: 8 mph from Northwest

Location: Luebeck-Blankensee

Current Time: Jan 27, 2015 at 3:25:22 PM

Latest Report: Jan 27, 2015 at 2:50 PM


Visibility: N/A

Pressure: 29.98 "Hg

Humidity: 71%

Dew point: 34 °F

Location of LübeckLocation

Historic Weather in Lübeck — Graph

°F

Lübeck temperature yesterday

Maximum temperature yesterday: 41 °F (at 7:20 PM)
Minimum temperature yesterday: 36 °F (at 6:50 AM)
Average temperature yesterday: 38 °F

Past Weeks' High & Low Weather Summary

 TemperatureHumidityPressure
High48 °F (Jan 13, 6:50 AM)100% (Jan 13, 5:50 PM)30.30 "Hg (Jan 13, 5:50 PM)
Low27 °F (Jan 23, 10:50 PM)66% (Jan 16, 7:20 AM)29.36 "Hg (Jan 15, 5:50 PM)
Average37 °F88%29.90 "Hg
* Reported Jan 12 2:20 PM — Jan 27 2:20 PM, Lübeck, Weather by CustomWeather, © 2014

Note: Actual official high and low records may vary slightly from our data, if they occured in-between our weather recording intervals... More about our weather records

Advertising

Lübeck weather history for previous 24 hours

 ConditionsComfort  
Time TempWeatherWind HumidityBarometerVisibility
2:20 PM
Jan 27
43 °FScattered clouds.7 mph71%29.98 "HgN/A
1:50 PM43 °FScattered clouds.8 mph71%29.98 "HgN/A
1:20 PM41 °FScattered clouds.8 mph76%29.95 "HgN/A
12:50 PM41 °FPassing clouds.8 mph76%29.95 "HgN/A
12:20 PM41 °FScattered clouds.8 mph81%29.95 "HgN/A
11:50 AM41 °FScattered clouds.8 mph81%29.95 "HgN/A
11:20 AM41 °FScattered clouds.7 mph81%29.95 "HgN/A
10:50 AM39 °FScattered clouds.6 mph81%29.95 "HgN/A
10:20 AM39 °FPassing clouds.7 mph81%29.95 "HgN/A
9:50 AM39 °FScattered clouds.8 mph81%29.95 "HgN/A
9:20 AM37 °FPassing clouds.8 mph87%29.95 "HgN/A
8:50 AM37 °FPassing clouds.7 mph87%29.92 "HgN/A
8:20 AM37 °FBroken clouds.7 mph87%29.92 "HgN/A
7:50 AM37 °FPassing clouds.7 mph87%29.92 "HgN/A
7:20 AM37 °FPassing clouds.6 mph87%29.92 "HgN/A
6:50 AM37 °FPassing clouds.8 mph87%29.89 "HgN/A
9:50 PM
Jan 26
39 °FPassing clouds.6 mph93%29.83 "HgN/A
9:20 PM41 °FPassing clouds.8 mph87%29.83 "Hg4 mi
8:50 PM41 °FPassing clouds.7 mph93%29.83 "HgN/A
8:20 PM41 °FPassing clouds.10 mph93%29.80 "HgN/A
7:50 PM41 °FLight rain. Passing clouds.9 mph100%29.83 "HgN/A
7:20 PM41 °FLight rain. Passing clouds.12 mph93%29.83 "HgN/A
6:50 PM39 °FPassing clouds.10 mph100%29.83 "HgN/A
6:20 PM39 °FLight rain. Passing clouds.10 mph100%29.83 "Hg5 mi
5:50 PM39 °FLight rain. Passing clouds.10 mph93%29.83 "HgN/A
5:20 PM39 °FLight rain. Passing clouds.10 mph93%29.83 "HgN/A
4:50 PM39 °FPassing clouds.9 mph93%29.86 "Hg4 mi
4:20 PM39 °FDrizzle. Fog.9 mph93%29.86 "Hg2 mi
3:50 PM39 °FDrizzle. Fog.10 mph93%29.86 "Hg2 mi
3:20 PM39 °FDrizzle. Fog.10 mph93%29.89 "Hg1 mi
Weather by CustomWeather, © 2014

See weather overviewHow to use our weather pages